User: anonymous
Location: Vale
(35.4830°N, 81.3830°W)
Time: 12:56:53
(UTC-04:00)
Language:

Oscar 11 - Orbit

View from above orbital plane
View from above orbital plane
View from above satellite
View from above satellite

Ground track
Ground track

The orbit data is extracted from the following two-line orbital elements,

1 14781U 84021B   14205.10828168  .00000196  00000-0  31525-4 0  5534
2 14781 097.8496 264.5117 0009786 067.5811 292.6438 14.81655788633436
Epoch (UTC): 24 July 2014 02:35:55
Eccentricity: 0.0009786
inclination: 97.8496°
perigee height: 617 km
apogee height: 631 km
right ascension of ascending node: 264.5117°
argument of perigee: 67.5811°
revolutions per day: 14.81655788
mean anomaly at epoch: 292.6438°
orbit number at epoch: 63343

The dashed part of the orbit path shows where the satellite is in the earth's shadow,  

DLR